Time,TemperatureF,DewpointF,PressureIn,WindDirection,WindDirectionDegrees,WindSpeedMPH,WindSpeedGustMPH,Humidity,HourlyPrecipIn,Conditions,Clouds,dailyrainin,SoftwareType,DateUTC
2013-06-23 00:01:00,64.0,56.0,30.18,SSW,210,0.0,-999.0,76,-99.99,,,-99.99,,2013-06-23 04:01:00,
2013-06-23 00:11:00,64.0,56.0,30.18,SSW,210,0.0,-999.0,76,-99.99,,,-99.99,,2013-06-23 04:11:00,
2013-06-23 00:21:00,64.0,56.0,30.18,SSW,210,0.0,-999.0,76,-99.99,,,-99.99,,2013-06-23 04:21:00,
2013-06-23 00:31:00,64.0,56.0,30.18,SSW,210,0.0,-999.0,76,-99.99,,,-99.99,,2013-06-23 04:31:00,
2013-06-23 01:11:00,64.0,57.0,30.17,SSW,210,0.0,-999.0,77,-99.99,,,-99.99,,2013-06-23 05:11:00,
2013-06-23 01:22:00,63.0,55.0,30.17,SSW,209,0.0,-999.0,75,-99.99,,,-99.99,,2013-06-23 05:22:00,
2013-06-23 01:32:00,63.0,55.0,30.17,SSW,209,0.0,-999.0,75,-99.99,,,-99.99,,2013-06-23 05:32:00,
2013-06-23 01:41:00,63.0,55.0,30.17,SSW,209,0.0,-999.0,74,-99.99,,,-99.99,,2013-06-23 05:41:00,
2013-06-23 01:51:00,63.0,55.0,30.17,SSW,209,0.0,-999.0,75,-99.99,,,-99.99,,2013-06-23 05:51:00,
2013-06-23 02:02:00,63.0,55.0,30.17,SSW,209,0.0,-999.0,76,-99.99,,,-99.99,,2013-06-23 06:02:00,
2013-06-23 02:12:00,63.0,55.0,30.17,SSW,209,0.0,-999.0,76,-99.99,,,-99.99,,2013-06-23 06:12:00,
2013-06-23 02:22:00,63.0,55.0,30.16,SSW,209,0.0,-999.0,76,-99.99,,,-99.99,,2013-06-23 06:22:00,
2013-06-23 02:33:00,63.0,55.0,30.16,SSW,209,0.0,-999.0,76,-99.99,,,-99.99,,2013-06-23 06:33:00,
2013-06-23 02:43:00,63.0,55.0,30.16,SSW,209,0.0,-999.0,76,-99.99,,,-99.99,,2013-06-23 06:43:00,
2013-06-23 02:52:00,63.0,55.0,30.16,SSW,209,0.0,-999.0,76,-99.99,,,-99.99,,2013-06-23 06:52:00,
2013-06-23 03:02:00,62.0,55.0,30.15,SSW,209,0.0,-999.0,78,-99.99,,,-99.99,,2013-06-23 07:02:00,
2013-06-23 03:12:00,62.0,55.0,30.15,SSW,209,0.0,-999.0,78,-99.99,,,-99.99,,2013-06-23 07:12:00,
2013-06-23 03:22:00,62.0,55.0,30.14,SSW,209,0.0,-999.0,79,-99.99,,,-99.99,,2013-06-23 07:22:00,
2013-06-23 03:34:00,62.0,55.0,30.14,SSW,209,0.0,-999.0,79,-99.99,,,-99.99,,2013-06-23 07:34:00,
2013-06-23 03:43:00,62.0,55.0,30.14,SSW,209,0.0,-999.0,79,-99.99,,,-99.99,,2013-06-23 07:43:00,
2013-06-23 03:53:00,61.0,55.0,30.14,SSW,209,0.0,-999.0,80,-99.99,,,-99.99,,2013-06-23 07:53:00,
2013-06-23 04:02:00,61.0,55.0,30.14,SSW,209,0.0,-999.0,82,-99.99,,,-99.99,,2013-06-23 08:02:00,
2013-06-23 04:12:00,61.0,55.0,30.14,SSW,209,0.0,-999.0,82,-99.99,,,-99.99,,2013-06-23 08:12:00,
2013-06-23 04:22:00,61.0,55.0,30.14,SSW,209,0.0,-999.0,82,-99.99,,,-99.99,,2013-06-23 08:22:00,
2013-06-23 04:34:00,61.0,56.0,30.14,SSW,209,0.0,-999.0,83,-99.99,,,-99.99,,2013-06-23 08:34:00,
2013-06-23 04:43:00,61.0,56.0,30.14,SSW,209,0.0,-999.0,83,-99.99,,,-99.99,,2013-06-23 08:43:00,
2013-06-23 04:53:00,61.0,56.0,30.14,SSW,209,0.0,-999.0,83,-99.99,,,-99.99,,2013-06-23 08:53:00,
2013-06-23 05:02:00,61.0,56.0,30.14,SSW,209,0.0,-999.0,83,-99.99,,,-99.99,,2013-06-23 09:02:00,
2013-06-23 05:12:00,61.0,56.0,30.14,SSW,209,0.0,-999.0,83,-99.99,,,-99.99,,2013-06-23 09:12:00,
2013-06-23 05:22:00,61.0,56.0,30.14,SSW,209,0.0,-999.0,84,-99.99,,,-99.99,,2013-06-23 09:22:00,
2013-06-23 05:34:00,61.0,56.0,30.14,SSW,209,0.0,-999.0,85,-99.99,,,-99.99,,2013-06-23 09:34:00,
2013-06-23 05:43:00,61.0,56.0,30.14,SSW,209,0.0,-999.0,85,-99.99,,,-99.99,,2013-06-23 09:43:00,
2013-06-23 05:54:00,61.0,56.0,30.14,SSW,209,0.0,-999.0,85,-99.99,,,-99.99,,2013-06-23 09:54:00,
2013-06-23 06:02:00,61.0,57.0,30.14,SSW,209,0.0,-999.0,86,-99.99,,,-99.99,,2013-06-23 10:02:00,
2013-06-23 06:12:00,61.0,57.0,30.14,SSW,209,0.0,-999.0,86,-99.99,,,-99.99,,2013-06-23 10:12:00,
2013-06-23 06:22:00,61.0,57.0,30.14,SSW,209,0.0,-999.0,87,-99.99,,,-99.99,,2013-06-23 10:22:00,
2013-06-23 06:34:00,62.0,58.0,30.15,SSW,209,0.0,-999.0,87,-99.99,,,-99.99,,2013-06-23 10:34:00,
2013-06-23 06:43:00,62.0,58.0,30.15,SSW,209,0.0,-999.0,87,-99.99,,,-99.99,,2013-06-23 10:43:00,
2013-06-23 06:53:00,62.0,58.0,30.14,SSW,209,0.0,-999.0,88,-99.99,,,-99.99,,2013-06-23 10:53:00,
2013-06-23 07:02:00,63.0,59.0,30.15,South,187,0.0,-999.0,87,-99.99,,,-99.99,,2013-06-23 11:02:00,
2013-06-23 07:11:00,63.0,59.0,30.15,South,187,0.0,-999.0,87,-99.99,,,-99.99,,2013-06-23 11:11:00,
2013-06-23 07:22:00,65.0,61.0,30.15,WSW,239,0.0,-999.0,86,-99.99,,,-99.99,,2013-06-23 11:22:00,
2013-06-23 07:33:00,66.0,62.0,30.15,WSW,238,0.0,-999.0,86,-99.99,,,-99.99,,2013-06-23 11:33:00,
2013-06-23 07:43:00,66.0,62.0,30.15,WSW,238,0.0,-999.0,86,-99.99,,,-99.99,,2013-06-23 11:43:00,
2013-06-23 07:53:00,67.0,62.0,30.15,SW,235,0.0,-999.0,85,-99.99,,,-99.99,,2013-06-23 11:53:00,
2013-06-23 08:01:00,68.0,63.0,30.16,ESE,110,0.0,-999.0,83,-99.99,,,-99.99,,2013-06-23 12:01:00,
2013-06-23 08:12:00,68.0,63.0,30.16,ESE,110,0.0,-999.0,83,-99.99,,,-99.99,,2013-06-23 12:12:00,
2013-06-23 08:22:00,69.0,63.0,30.16,NW,310,0.0,-999.0,82,-99.99,,,-99.99,,2013-06-23 12:22:00,
2013-06-23 08:33:00,69.0,63.0,30.16,NW,310,0.0,-999.0,82,-99.99,,,-99.99,,2013-06-23 12:33:00,
2013-06-23 08:43:00,70.0,64.0,30.16,WNW,300,0.0,-999.0,81,-99.99,,,-99.99,,2013-06-23 12:43:00,
2013-06-23 08:53:00,71.0,65.0,30.16,SW,228,0.0,-999.0,80,-99.99,,,-99.99,,2013-06-23 12:53:00,
2013-06-23 09:02:00,71.0,64.0,30.16,ESE,117,0.0,-999.0,79,-99.99,,,-99.99,,2013-06-23 13:02:00,
2013-06-23 09:34:00,72.0,65.0,30.16,West,260,1.0,-999.0,78,-99.99,,,-99.99,,2013-06-23 13:34:00,
2013-06-23 09:43:00,73.0,65.0,30.16,East,79,1.0,-999.0,76,-99.99,,,-99.99,,2013-06-23 13:43:00,
2013-06-23 09:54:00,74.0,66.0,30.16,SW,235,1.0,-999.0,75,-99.99,,,-99.99,,2013-06-23 13:54:00,
2013-06-23 10:05:00,75.0,66.0,30.15,WSW,258,1.0,-999.0,74,-99.99,,,-99.99,,2013-06-23 14:05:00,
2013-06-23 10:11:00,75.0,66.0,30.15,WSW,258,1.0,-999.0,74,-99.99,,,-99.99,,2013-06-23 14:11:00,
2013-06-23 10:22:00,77.0,67.0,30.14,West,264,0.0,-999.0,71,-99.99,,,-99.99,,2013-06-23 14:22:00,
2013-06-23 10:34:00,78.0,67.0,30.14,SW,217,1.0,-999.0,70,-99.99,,,-99.99,,2013-06-23 14:34:00,
2013-06-23 10:44:00,78.0,67.0,30.14,SW,217,1.0,-999.0,70,-99.99,,,-99.99,,2013-06-23 14:44:00,
2013-06-23 10:52:00,78.0,67.0,30.14,WSW,243,1.0,-999.0,70,-99.99,,,-99.99,,2013-06-23 14:52:00,
2013-06-23 11:05:00,79.0,68.0,30.14,SW,232,0.0,-999.0,69,-99.99,,,-99.99,,2013-06-23 15:05:00,
2013-06-23 11:12:00,79.0,68.0,30.14,SW,232,0.0,-999.0,69,-99.99,,,-99.99,,2013-06-23 15:12:00,
2013-06-23 11:23:00,80.0,68.0,30.13,NW,318,1.0,-999.0,66,-99.99,,,-99.99,,2013-06-23 15:23:00,
2013-06-23 11:35:00,80.0,68.0,30.13,NNW,348,0.0,-999.0,66,-99.99,,,-99.99,,2013-06-23 15:35:00,
2013-06-23 11:43:00,80.0,68.0,30.13,NNW,348,0.0,-999.0,66,-99.99,,,-99.99,,2013-06-23 15:43:00,
2013-06-23 11:53:00,81.0,66.0,30.13,ESE,119,1.0,-999.0,61,-99.99,,,-99.99,,2013-06-23 15:53:00,
2013-06-23 12:06:00,82.0,67.0,30.12,West,263,1.0,-999.0,60,-99.99,,,-99.99,,2013-06-23 16:06:00,
2013-06-23 12:12:00,82.0,67.0,30.12,West,263,1.0,-999.0,60,-99.99,,,-99.99,,2013-06-23 16:12:00,
2013-06-23 12:22:00,82.0,66.0,30.12,WSW,254,1.0,-999.0,58,-99.99,,,-99.99,,2013-06-23 16:22:00,
2013-06-23 12:36:00,84.0,67.0,30.12,WSW,240,1.0,-999.0,57,-99.99,,,-99.99,,2013-06-23 16:36:00,
2013-06-23 12:43:00,84.0,67.0,30.12,WSW,240,1.0,-999.0,57,-99.99,,,-99.99,,2013-06-23 16:43:00,
2013-06-23 12:53:00,84.0,66.0,30.12,SSW,199,0.0,-999.0,54,-99.99,,,-99.99,,2013-06-23 16:53:00,
2013-06-23 13:06:00,85.0,65.0,30.12,WSW,241,1.0,-999.0,51,-99.99,,,-99.99,,2013-06-23 17:06:00,
2013-06-23 13:22:00,86.0,65.0,30.11,WSW,246,1.0,-999.0,50,-99.99,,,-99.99,,2013-06-23 17:22:00,
2013-06-23 13:33:00,86.0,65.0,30.11,ENE,78,0.0,-999.0,49,-99.99,,,-99.99,,2013-06-23 17:33:00,
2013-06-23 13:43:00,86.0,65.0,30.11,ENE,78,0.0,-999.0,49,-99.99,,,-99.99,,2013-06-23 17:43:00,
2013-06-23 13:53:00,86.0,62.0,30.10,SW,228,1.0,-999.0,45,-99.99,,,-99.99,,2013-06-23 17:53:00,
2013-06-23 14:01:00,87.0,62.0,30.10,SW,235,1.0,-999.0,44,-99.99,,,-99.99,,2013-06-23 18:01:00,
2013-06-23 14:12:00,87.0,62.0,30.10,SW,235,1.0,-999.0,44,-99.99,,,-99.99,,2013-06-23 18:12:00,
2013-06-23 14:22:00,87.0,62.0,30.09,South,182,1.0,-999.0,43,-99.99,,,-99.99,,2013-06-23 18:22:00,
2013-06-23 14:34:00,87.0,62.0,30.09,South,182,1.0,-999.0,43,-99.99,,,-99.99,,2013-06-23 18:34:00,
2013-06-23 14:43:00,87.0,64.0,30.09,SW,216,0.0,-999.0,47,-99.99,,,-99.99,,2013-06-23 18:43:00,
2013-06-23 14:53:00,87.0,62.0,30.09,SSW,210,1.0,-999.0,44,-99.99,,,-99.99,,2013-06-23 18:53:00,
2013-06-23 15:01:00,88.0,61.0,30.08,SSW,212,1.0,-999.0,41,-99.99,,,-99.99,,2013-06-23 19:01:00,
2013-06-23 15:11:00,88.0,61.0,30.08,SSW,212,1.0,-999.0,41,-99.99,,,-99.99,,2013-06-23 19:11:00,
2013-06-23 15:32:00,88.0,68.0,30.07,SSW,205,0.0,-999.0,52,-99.99,,,-99.99,,2013-06-23 19:32:00,
2013-06-23 15:43:00,88.0,68.0,30.07,SSW,205,0.0,-999.0,52,-99.99,,,-99.99,,2013-06-23 19:43:00,
2013-06-23 15:53:00,88.0,67.0,30.06,SW,225,1.0,-999.0,50,-99.99,,,-99.99,,2013-06-23 19:53:00,
2013-06-23 16:02:00,88.0,69.0,30.07,SSE,158,0.0,-999.0,53,-99.99,,,-99.99,,2013-06-23 20:02:00,
2013-06-23 16:12:00,88.0,69.0,30.07,SSE,158,0.0,-999.0,53,-99.99,,,-99.99,,2013-06-23 20:12:00,
2013-06-23 16:24:00,87.0,69.0,30.06,SSW,206,1.0,-999.0,55,-99.99,,,-99.99,,2013-06-23 20:24:00,
2013-06-23 16:33:00,87.0,69.0,30.05,SSW,212,1.0,-999.0,55,-99.99,,,-99.99,,2013-06-23 20:33:00,
2013-06-23 16:42:00,87.0,69.0,30.05,SSW,212,1.0,-999.0,55,-99.99,,,-99.99,,2013-06-23 20:42:00,
2013-06-23 16:53:00,86.0,69.0,30.05,WSW,251,1.0,-999.0,58,-99.99,,,-99.99,,2013-06-23 20:53:00,
2013-06-23 17:01:00,85.0,70.0,30.05,NNE,29,1.0,-999.0,60,-99.99,,,-99.99,,2013-06-23 21:01:00,
2013-06-23 17:22:00,85.0,70.0,30.05,South,177,1.0,-999.0,61,-99.99,,,-99.99,,2013-06-23 21:22:00,
2013-06-23 17:34:00,84.0,70.0,30.05,SSW,201,1.0,-999.0,62,-99.99,,,-99.99,,2013-06-23 21:34:00,
2013-06-23 17:44:00,84.0,70.0,30.05,SSW,201,1.0,-999.0,62,-99.99,,,-99.99,,2013-06-23 21:44:00,
2013-06-23 17:52:00,84.0,70.0,30.05,SW,218,1.0,-999.0,63,-99.99,,,-99.99,,2013-06-23 21:52:00,
2013-06-23 18:01:00,84.0,70.0,30.05,SW,218,1.0,-999.0,63,-99.99,,,-99.99,,2013-06-23 22:01:00,
2013-06-23 18:12:00,83.0,69.0,30.05,SW,233,1.0,-999.0,63,-99.99,,,-99.99,,2013-06-23 22:12:00,
2013-06-23 18:32:00,81.0,69.0,30.05,West,264,1.0,-999.0,67,-99.99,,,-99.99,,2013-06-23 22:32:00,
2013-06-23 18:43:00,81.0,69.0,30.05,West,264,1.0,-999.0,67,-99.99,,,-99.99,,2013-06-23 22:43:00,
2013-06-23 18:53:00,80.0,68.0,30.04,WNW,287,1.0,-999.0,68,-99.99,,,-99.99,,2013-06-23 22:53:00,
2013-06-23 19:01:00,79.0,68.0,30.04,SSW,195,0.0,-999.0,70,-99.99,,,-99.99,,2013-06-23 23:01:00,
2013-06-23 19:12:00,79.0,68.0,30.04,SSW,195,0.0,-999.0,70,-99.99,,,-99.99,,2013-06-23 23:12:00,
2013-06-23 19:22:00,78.0,68.0,30.04,SSW,200,1.0,-999.0,72,-99.99,,,-99.99,,2013-06-23 23:22:00,
2013-06-23 19:33:00,78.0,69.0,30.04,South,175,1.0,-999.0,74,-99.99,,,-99.99,,2013-06-23 23:33:00,
2013-06-23 19:44:00,78.0,69.0,30.04,South,175,1.0,-999.0,74,-99.99,,,-99.99,,2013-06-23 23:44:00,
2013-06-23 19:52:00,77.0,68.0,30.04,SSW,195,1.0,-999.0,75,-99.99,,,-99.99,,2013-06-23 23:52:00,
2013-06-23 20:01:00,77.0,68.0,30.04,South,189,0.0,-999.0,75,-99.99,,,-99.99,,2013-06-24 00:01:00,
2013-06-23 20:11:00,77.0,68.0,30.04,South,189,0.0,-999.0,75,-99.99,,,-99.99,,2013-06-24 00:11:00,
2013-06-23 20:22:00,76.0,67.0,30.05,South,177,1.0,-999.0,74,-99.99,,,-99.99,,2013-06-24 00:22:00,
2013-06-23 20:33:00,76.0,68.0,30.05,WSW,237,0.0,-999.0,76,-99.99,,,-99.99,,2013-06-24 00:33:00,
2013-06-23 20:42:00,76.0,68.0,30.05,WSW,237,0.0,-999.0,76,-99.99,,,-99.99,,2013-06-24 00:42:00,
2013-06-23 20:52:00,75.0,68.0,30.05,WSW,249,0.0,-999.0,78,-99.99,,,-99.99,,2013-06-24 00:52:00,
2013-06-23 21:02:00,74.0,67.0,30.06,South,182,0.0,-999.0,79,-99.99,,,-99.99,,2013-06-24 01:02:00,
2013-06-23 21:11:00,74.0,67.0,30.06,South,182,0.0,-999.0,79,-99.99,,,-99.99,,2013-06-24 01:11:00,
2013-06-23 21:22:00,74.0,67.0,30.06,WNW,292,0.0,-999.0,80,-99.99,,,-99.99,,2013-06-24 01:22:00,
2013-06-23 21:32:00,73.0,67.0,30.06,SW,215,0.0,-999.0,81,-99.99,,,-99.99,,2013-06-24 01:32:00,
2013-06-23 21:42:00,73.0,67.0,30.06,SW,215,0.0,-999.0,81,-99.99,,,-99.99,,2013-06-24 01:42:00,
2013-06-23 21:53:00,73.0,67.0,30.06,SW,216,0.0,-999.0,82,-99.99,,,-99.99,,2013-06-24 01:53:00,
2013-06-23 22:02:00,72.0,67.0,30.06,SSW,210,0.0,-999.0,83,-99.99,,,-99.99,,2013-06-24 02:02:00,
2013-06-23 22:11:00,72.0,67.0,30.06,SSW,210,0.0,-999.0,83,-99.99,,,-99.99,,2013-06-24 02:11:00,
2013-06-23 22:22:00,72.0,67.0,30.07,SSW,210,0.0,-999.0,84,-99.99,,,-99.99,,2013-06-24 02:22:00,
2013-06-23 22:42:00,71.0,66.0,30.07,SSW,210,0.0,-999.0,85,-99.99,,,-99.99,,2013-06-24 02:42:00,
2013-06-23 22:53:00,71.0,67.0,30.08,SW,214,0.0,-999.0,86,-99.99,,,-99.99,,2013-06-24 02:53:00,
2013-06-23 23:01:00,71.0,67.0,30.07,SW,214,0.0,-999.0,86,-99.99,,,-99.99,,2013-06-24 03:01:00,
2013-06-23 23:11:00,71.0,67.0,30.07,SW,214,0.0,-999.0,86,-99.99,,,-99.99,,2013-06-24 03:11:00,
2013-06-23 23:22:00,71.0,67.0,30.06,SW,214,0.0,-999.0,87,-99.99,,,-99.99,,2013-06-24 03:22:00,
2013-06-23 23:33:00,70.0,66.0,30.05,SSW,194,0.0,-999.0,88,-99.99,,,-99.99,,2013-06-24 03:33:00,
2013-06-23 23:43:00,70.0,66.0,30.05,SSW,194,0.0,-999.0,88,-99.99,,,-99.99,,2013-06-24 03:43:00,
2013-06-23 23:53:00,70.0,67.0,30.06,South,186,0.0,-999.0,89,-99.99,,,-99.99,,2013-06-24 03:53:00,